Wetterdaten: Freitag, 17.05.2013
Datum Zeit Temp. Auen Feucht Auen Luftdruck Regen Richtung Richtung Windben
17.05.2013 00:00 15,4 C 64 % 995,9 hPa 0,0 mm SO 134 8,0 km/h (2 Bft)
17.05.2013 00:05 15,3 C 65 % 996,0 hPa 0,0 mm SO 128 6,4 km/h (2 Bft)
17.05.2013 00:10 15,3 C 64 % 996,0 hPa 0,0 mm SO 128 3,2 km/h (1 Bft)
17.05.2013 00:15 15,2 C 65 % 996,0 hPa 0,0 mm SO 145 6,4 km/h (2 Bft)
17.05.2013 00:20 15,2 C 65 % 996,0 hPa 0,0 mm SO 145 0,0 km/h (0 Bft)
17.05.2013 00:25 14,8 C 66 % 996,0 hPa 0,0 mm SO 145 0,0 km/h (0 Bft)
17.05.2013 00:30 14,6 C 67 % 995,9 hPa 0,0 mm SO 145 0,0 km/h (0 Bft)
17.05.2013 00:35 14,4 C 68 % 996,0 hPa 0,0 mm SO 145 3,2 km/h (1 Bft)
17.05.2013 00:40 14,4 C 68 % 996,0 hPa 0,0 mm SO 145 1,6 km/h (1 Bft)
17.05.2013 00:45 14,3 C 68 % 995,9 hPa 0,0 mm SO 145 1,6 km/h (1 Bft)
17.05.2013 00:50 14,1 C 69 % 996,0 hPa 0,0 mm SO 145 0,0 km/h (0 Bft)
17.05.2013 00:55 14,2 C 69 % 995,8 hPa 0,0 mm SO 145 1,6 km/h (1 Bft)
17.05.2013 01:00 14,5 C 68 % 995,8 hPa 0,0 mm S-SO 156 3,2 km/h (1 Bft)
17.05.2013 01:05 14,3 C 68 % 995,8 hPa 0,0 mm S-SO 156 0,0 km/h (0 Bft)
17.05.2013 01:10 14,2 C 69 % 995,9 hPa 0,0 mm S-SO 156 1,6 km/h (1 Bft)
17.05.2013 01:15 14,1 C 69 % 995,8 hPa 0,0 mm S-SO 156 1,6 km/h (1 Bft)
17.05.2013 01:20 14,0 C 70 % 995,8 hPa 0,0 mm S-SO 157 1,6 km/h (1 Bft)
17.05.2013 01:25 13,9 C 69 % 995,8 hPa 0,0 mm S-SO 157 1,6 km/h (1 Bft)
17.05.2013 01:30 13,7 C 71 % 995,8 hPa 0,0 mm SO 130 1,6 km/h (1 Bft)
17.05.2013 01:35 13,7 C 71 % 995,8 hPa 0,0 mm O 99 3,2 km/h (1 Bft)
17.05.2013 01:40 13,8 C 70 % 995,8 hPa 0,0 mm O 90 8,0 km/h (2 Bft)
17.05.2013 01:45 13,6 C 72 % 995,7 hPa 0,0 mm O 90 3,2 km/h (1 Bft)
17.05.2013 01:50 13,6 C 72 % 995,6 hPa 0,0 mm O 85 1,6 km/h (1 Bft)
17.05.2013 01:55 13,4 C 72 % 995,7 hPa 0,0 mm S-SO 162 4,8 km/h (1 Bft)
17.05.2013 02:00 13,7 C 71 % 995,7 hPa 0,0 mm O 96 3,2 km/h (1 Bft)
17.05.2013 02:05 13,6 C 71 % 995,7 hPa 0,0 mm O 86 3,2 km/h (1 Bft)
17.05.2013 02:10 13,6 C 72 % 995,7 hPa 0,0 mm O 86 1,6 km/h (1 Bft)
17.05.2013 02:15 13,1 C 73 % 995,6 hPa 0,0 mm O 86 1,6 km/h (1 Bft)
17.05.2013 02:20 12,3 C 76 % 995,6 hPa 0,0 mm SO 142 3,2 km/h (1 Bft)
17.05.2013 02:25 12,1 C 78 % 995,6 hPa 0,0 mm O 95 3,2 km/h (1 Bft)
17.05.2013 02:30 12,3 C 77 % 995,6 hPa 0,0 mm S 173 4,8 km/h (1 Bft)
17.05.2013 02:35 13,0 C 75 % 995,6 hPa 0,0 mm NO 47 4,8 km/h (1 Bft)
17.05.2013 02:40 13,6 C 72 % 995,6 hPa 0,0 mm S 182 3,2 km/h (1 Bft)
17.05.2013 02:45 13,7 C 71 % 995,6 hPa 0,0 mm S 182 0,0 km/h (0 Bft)
17.05.2013 02:50 13,4 C 72 % 995,6 hPa 0,0 mm S 182 0,0 km/h (0 Bft)
17.05.2013 02:55 12,9 C 74 % 995,6 hPa 0,0 mm S 182 0,0 km/h (0 Bft)
17.05.2013 03:00 13,3 C 73 % 995,6 hPa 0,0 mm O-SO 109 8,0 km/h (2 Bft)
17.05.2013 03:05 13,3 C 72 % 995,6 hPa 0,0 mm O-SO 109 1,6 km/h (1 Bft)
17.05.2013 03:10 13,0 C 74 % 995,5 hPa 0,0 mm O-SO 109 0,0 km/h (0 Bft)
17.05.2013 03:15 12,8 C 75 % 995,5 hPa 0,0 mm O-SO 109 0,0 km/h (0 Bft)
17.05.2013 03:20 12,7 C 75 % 995,5 hPa 0,0 mm O-SO 109 1,6 km/h (1 Bft)
17.05.2013 03:25 12,6 C 76 % 995,6 hPa 0,0 mm O-NO 63 3,2 km/h (1 Bft)
17.05.2013 03:30 12,2 C 77 % 995,5 hPa 0,0 mm O-NO 63 1,6 km/h (1 Bft)
17.05.2013 03:35 12,1 C 77 % 995,5 hPa 0,0 mm O-NO 63 1,6 km/h (1 Bft)
17.05.2013 03:40 12,2 C 78 % 995,5 hPa 0,0 mm S-SO 153 6,4 km/h (2 Bft)
17.05.2013 03:45 12,4 C 76 % 995,5 hPa 0,0 mm SO 141 8,0 km/h (2 Bft)
17.05.2013 03:50 12,4 C 77 % 995,5 hPa 0,0 mm SO 133 4,8 km/h (1 Bft)
17.05.2013 03:55 12,6 C 76 % 995,4 hPa 0,0 mm SO 130 3,2 km/h (1 Bft)
17.05.2013 04:00 12,7 C 75 % 995,3 hPa 0,0 mm O-SO 108 3,2 km/h (1 Bft)
17.05.2013 04:05 12,7 C 75 % 995,4 hPa 0,0 mm NO 44 3,2 km/h (1 Bft)
17.05.2013 04:10 12,9 C 74 % 995,3 hPa 0,0 mm NO 42 3,2 km/h (1 Bft)
17.05.2013 04:15 12,6 C 75 % 995,2 hPa 0,0 mm NO 42 0,0 km/h (0 Bft)
17.05.2013 04:20 12,1 C 77 % 995,2 hPa 0,0 mm O-SO 111 1,6 km/h (1 Bft)
17.05.2013 04:25 11,8 C 79 % 995,2 hPa 0,0 mm O-SO 111 0,0 km/h (0 Bft)
17.05.2013 04:30 11,8 C 79 % 995,2 hPa 0,0 mm S 175 6,4 km/h (2 Bft)
17.05.2013 04:35 11,8 C 79 % 995,2 hPa 0,0 mm S 176 4,8 km/h (1 Bft)
17.05.2013 04:40 11,8 C 79 % 995,2 hPa 0,0 mm S 176 1,6 km/h (1 Bft)
17.05.2013 04:45 11,8 C 79 % 995,1 hPa 0,0 mm S 176 0,0 km/h (0 Bft)
17.05.2013 04:50 11,2 C 81 % 995,1 hPa 0,0 mm S 176 3,2 km/h (1 Bft)
17.05.2013 04:55 11,4 C 81 % 995,1 hPa 0,0 mm S 176 1,6 km/h (1 Bft)
17.05.2013 05:00 11,5 C 80 % 995,1 hPa 0,0 mm S 177 3,2 km/h (1 Bft)
17.05.2013 05:05 11,5 C 81 % 995,1 hPa 0,0 mm S 177 3,2 km/h (1 Bft)
17.05.2013 05:10 10,9 C 82 % 995,1 hPa 0,0 mm S 177 0,0 km/h (0 Bft)
17.05.2013 05:15 11,0 C 83 % 995,0 hPa 0,0 mm S 177 0,0 km/h (0 Bft)
17.05.2013 05:20 11,4 C 82 % 995,0 hPa 0,0 mm S 177 0,0 km/h (0 Bft)
17.05.2013 05:25 11,3 C 82 % 995,0 hPa 0,0 mm S 177 1,6 km/h (1 Bft)
17.05.2013 05:30 11,1 C 83 % 994,9 hPa 0,0 mm S 177 1,6 km/h (1 Bft)
17.05.2013 05:35 11,0 C 83 % 995,1 hPa 0,0 mm S 177 4,8 km/h (1 Bft)
17.05.2013 05:40 11,1 C 83 % 995,0 hPa 0,0 mm S 177 0,0 km/h (0 Bft)
17.05.2013 05:45 11,2 C 83 % 995,0 hPa 0,0 mm S 177 1,6 km/h (1 Bft)
17.05.2013 05:50 10,9 C 84 % 995,0 hPa 0,0 mm S 177 1,6 km/h (1 Bft)
17.05.2013 05:55 11,4 C 83 % 995,0 hPa 0,0 mm SW 219 3,2 km/h (1 Bft)
17.05.2013 06:00 11,7 C 83 % 995,0 hPa 0,0 mm SW 219 0,0 km/h (0 Bft)
17.05.2013 06:05 12,0 C 83 % 994,9 hPa 0,0 mm W-NW 298 3,2 km/h (1 Bft)
17.05.2013 06:10 12,5 C 82 % 995,0 hPa 0,0 mm W-NW 298 0,0 km/h (0 Bft)
17.05.2013 06:15 12,8 C 78 % 994,9 hPa 0,0 mm W-NW 298 1,6 km/h (1 Bft)
17.05.2013 06:20 12,8 C 79 % 995,0 hPa 0,0 mm W-NW 298 1,6 km/h (1 Bft)
17.05.2013 06:25 13,2 C 76 % 995,0 hPa 0,0 mm W 269 3,2 km/h (1 Bft)
17.05.2013 06:30 13,3 C 76 % 995,0 hPa 0,0 mm W 269 1,6 km/h (1 Bft)
17.05.2013 06:35 13,2 C 79 % 995,0 hPa 0,0 mm W 269 1,6 km/h (1 Bft)
17.05.2013 06:40 13,4 C 79 % 995,1 hPa 0,0 mm W 269 1,6 km/h (1 Bft)
17.05.2013 06:45 13,6 C 78 % 995,1 hPa 0,0 mm W 269 1,6 km/h (1 Bft)
17.05.2013 06:50 13,9 C 78 % 995,1 hPa 0,0 mm S 181 3,2 km/h (1 Bft)
17.05.2013 06:55 14,6 C 77 % 995,0 hPa 0,0 mm S 181 1,6 km/h (1 Bft)
17.05.2013 07:00 14,5 C 80 % 995,1 hPa 0,0 mm S 181 0,0 km/h (0 Bft)
17.05.2013 07:05 14,9 C 75 % 995,1 hPa 0,0 mm S 181 1,6 km/h (1 Bft)
17.05.2013 07:10 15,1 C 77 % 995,1 hPa 0,0 mm S 181 1,6 km/h (1 Bft)
17.05.2013 07:15 15,1 C 80 % 995,1 hPa 0,0 mm S 181 1,6 km/h (1 Bft)
17.05.2013 07:20 15,8 C 76 % 995,0 hPa 0,0 mm S 181 1,6 km/h (1 Bft)
17.05.2013 07:25 16,3 C 68 % 995,0 hPa 0,0 mm S-SO 166 4,8 km/h (1 Bft)
17.05.2013 07:30 16,6 C 72 % 995,0 hPa 0,0 mm NO 45 4,8 km/h (1 Bft)
17.05.2013 07:35 16,6 C 71 % 995,0 hPa 0,0 mm O-NO 67 4,8 km/h (1 Bft)
17.05.2013 07:40 16,9 C 65 % 995,1 hPa 0,0 mm O 82 4,8 km/h (1 Bft)
17.05.2013 07:45 17,2 C 67 % 995,1 hPa 0,0 mm O 88 4,8 km/h (1 Bft)
17.05.2013 07:50 17,6 C 64 % 995,0 hPa 0,0 mm N-NO 20 11,3 km/h (2 Bft)
17.05.2013 07:55 18,2 C 61 % 995,0 hPa 0,0 mm NO 50 9,7 km/h (2 Bft)
17.05.2013 08:00 18,4 C 57 % 995,1 hPa 0,0 mm O 89 14,5 km/h (3 Bft)
17.05.2013 08:05 18,6 C 55 % 994,9 hPa 0,0 mm O-NO 73 17,7 km/h (3 Bft)
17.05.2013 08:10 18,5 C 56 % 995,1 hPa 0,0 mm O-SO 107 12,9 km/h (3 Bft)
17.05.2013 08:15 18,3 C 58 % 995,1 hPa 0,0 mm O-SO 121 14,5 km/h (3 Bft)
17.05.2013 08:20 18,4 C 54 % 995,3 hPa 0,0 mm SO 139 14,5 km/h (3 Bft)
17.05.2013 08:25 18,7 C 53 % 995,2 hPa 0,0 mm O-SO 114 19,3 km/h (3 Bft)
17.05.2013 08:30 18,8 C 52 % 995,2 hPa 0,0 mm O-SO 110 16,1 km/h (3 Bft)
17.05.2013 08:35 18,8 C 52 % 995,2 hPa 0,0 mm O 88 25,7 km/h (4 Bft)
17.05.2013 08:40 18,8 C 53 % 995,3 hPa 0,0 mm O-SO 108 16,1 km/h (3 Bft)
17.05.2013 08:45 18,5 C 54 % 995,3 hPa 0,0 mm O-NO 68 14,5 km/h (3 Bft)
17.05.2013 08:50 18,5 C 56 % 995,2 hPa 0,0 mm SO 142 11,3 km/h (2 Bft)
17.05.2013 08:55 18,2 C 59 % 995,2 hPa 0,0 mm SO 126 8,0 km/h (2 Bft)
17.05.2013 09:00 18,6 C 57 % 995,3 hPa 0,0 mm O 94 11,3 km/h (2 Bft)
17.05.2013 09:05 19,1 C 53 % 995,3 hPa 0,0 mm SO 134 12,9 km/h (3 Bft)
17.05.2013 09:10 19,8 C 51 % 995,2 hPa 0,0 mm O-NO 74 25,7 km/h (4 Bft)
17.05.2013 09:15 20,2 C 52 % 995,3 hPa 0,0 mm O 92 16,1 km/h (3 Bft)
17.05.2013 09:20 20,5 C 49 % 995,2 hPa 0,0 mm O 80 20,9 km/h (4 Bft)
17.05.2013 09:25 20,8 C 47 % 995,3 hPa 0,0 mm O-SO 107 16,1 km/h (3 Bft)
17.05.2013 09:30 21,0 C 49 % 995,1 hPa 0,0 mm O-NO 74 16,1 km/h (3 Bft)
17.05.2013 09:35 21,1 C 49 % 995,1 hPa 0,0 mm O-NO 69 20,9 km/h (4 Bft)
17.05.2013 09:40 21,2 C 49 % 995,1 hPa 0,0 mm O-SO 121 17,7 km/h (3 Bft)
17.05.2013 09:45 21,3 C 47 % 995,1 hPa 0,0 mm O 89 16,1 km/h (3 Bft)
17.05.2013 09:50 21,4 C 46 % 995,0 hPa 0,0 mm O 97 20,9 km/h (4 Bft)
17.05.2013 09:55 21,4 C 47 % 995,0 hPa 0,0 mm O 93 16,1 km/h (3 Bft)
17.05.2013 10:00 21,7 C 47 % 995,0 hPa 0,0 mm O 91 14,5 km/h (3 Bft)
17.05.2013 10:05 21,8 C 44 % 994,9 hPa 0,0 mm NO 45 17,7 km/h (3 Bft)
17.05.2013 10:10 21,9 C 44 % 994,9 hPa 0,0 mm O 80 16,1 km/h (3 Bft)
17.05.2013 10:15 22,1 C 47 % 994,9 hPa 0,0 mm O 90 14,5 km/h (3 Bft)
17.05.2013 10:20 22,4 C 44 % 994,8 hPa 0,0 mm O 87 16,1 km/h (3 Bft)
17.05.2013 10:25 22,6 C 45 % 994,8 hPa 0,0 mm O 82 17,7 km/h (3 Bft)
17.05.2013 10:30 22,7 C 45 % 994,9 hPa 0,0 mm O-SO 103 17,7 km/h (3 Bft)
17.05.2013 10:35 22,7 C 44 % 994,9 hPa 0,0 mm SO 140 16,1 km/h (3 Bft)
17.05.2013 10:40 22,8 C 42 % 994,9 hPa 0,0 mm O 82 16,1 km/h (3 Bft)
17.05.2013 10:45 22,8 C 42 % 994,9 hPa 0,0 mm O-NO 69 14,5 km/h (3 Bft)
17.05.2013 10:50 22,9 C 41 % 994,9 hPa 0,0 mm O 94 16,1 km/h (3 Bft)
17.05.2013 10:55 23,2 C 43 % 994,9 hPa 0,0 mm O-SO 112 17,7 km/h (3 Bft)
17.05.2013 11:00 23,1 C 44 % 994,9 hPa 0,0 mm SO 143 16,1 km/h (3 Bft)
17.05.2013 11:05 23,4 C 43 % 994,9 hPa 0,0 mm O-SO 113 19,3 km/h (3 Bft)
17.05.2013 11:10 23,3 C 40 % 994,8 hPa 0,0 mm O-NO 68 14,5 km/h (3 Bft)
17.05.2013 11:15 23,4 C 40 % 994,8 hPa 0,0 mm SO 126 17,7 km/h (3 Bft)
17.05.2013 11:20 23,6 C 41 % 994,8 hPa 0,0 mm O 88 16,1 km/h (3 Bft)
17.05.2013 11:25 23,8 C 41 % 994,8 hPa 0,0 mm O-SO 102 14,5 km/h (3 Bft)
17.05.2013 11:30 23,8 C 41 % 994,8 hPa 0,0 mm O-SO 109 17,7 km/h (3 Bft)
17.05.2013 11:35 23,9 C 42 % 994,9 hPa 0,0 mm O-NO 74 19,3 km/h (3 Bft)
17.05.2013 11:40 23,7 C 40 % 994,9 hPa 0,0 mm SO 136 17,7 km/h (3 Bft)
17.05.2013 11:45 24,1 C 40 % 994,9 hPa 0,0 mm O 88 17,7 km/h (3 Bft)
17.05.2013 11:50 24,1 C 40 % 995,0 hPa 0,0 mm O 88 24,1 km/h (4 Bft)
17.05.2013 11:55 24,1 C 44 % 995,0 hPa 0,0 mm O 96 14,5 km/h (3 Bft)
17.05.2013 12:00 24,4 C 38 % 995,0 hPa 0,0 mm SO 128 12,9 km/h (3 Bft)
17.05.2013 12:05 24,5 C 40 % 995,0 hPa 0,0 mm O 97 16,1 km/h (3 Bft)
17.05.2013 12:10 24,3 C 39 % 995,0 hPa 0,0 mm O-NO 75 14,5 km/h (3 Bft)
17.05.2013 12:15 24,5 C 39 % 995,0 hPa 0,0 mm O 98 17,7 km/h (3 Bft)
17.05.2013 12:20 24,6 C 42 % 995,0 hPa 0,0 mm SO 138 20,9 km/h (4 Bft)
17.05.2013 12:25 24,9 C 38 % 995,0 hPa 0,0 mm O-SO 105 22,5 km/h (4 Bft)
17.05.2013 12:30 24,9 C 39 % 994,9 hPa 0,0 mm O 96 17,7 km/h (3 Bft)
17.05.2013 12:35 24,9 C 40 % 995,0 hPa 0,0 mm O-SO 105 20,9 km/h (4 Bft)
17.05.2013 12:40 24,9 C 37 % 995,0 hPa 0,0 mm O-SO 106 17,7 km/h (3 Bft)
17.05.2013 12:45 24,2 C 38 % 994,9 hPa 0,0 mm O-SO 123 20,9 km/h (4 Bft)
17.05.2013 12:50 23,6 C 42 % 994,9 hPa 0,0 mm O 96 22,5 km/h (4 Bft)
17.05.2013 12:55 23,5 C 38 % 994,9 hPa 0,0 mm O-SO 105 17,7 km/h (3 Bft)
17.05.2013 13:00 23,4 C 40 % 995,0 hPa 0,0 mm O-SO 113 14,5 km/h (3 Bft)
17.05.2013 13:05 24,4 C 37 % 994,9 hPa 0,0 mm SO 129 14,5 km/h (3 Bft)
17.05.2013 13:10 24,9 C 41 % 995,0 hPa 0,0 mm S-SO 161 17,7 km/h (3 Bft)
17.05.2013 13:15 25,0 C 36 % 995,0 hPa 0,0 mm SO 131 24,1 km/h (4 Bft)
17.05.2013 13:20 24,2 C 38 % 995,0 hPa 0,0 mm SO 140 17,7 km/h (3 Bft)
17.05.2013 13:25 23,8 C 41 % 995,0 hPa 0,0 mm SO 138 12,9 km/h (3 Bft)
17.05.2013 13:30 24,0 C 38 % 995,0 hPa 0,0 mm SO 137 12,9 km/h (3 Bft)
17.05.2013 13:35 23,9 C 37 % 995,0 hPa 0,0 mm SO 130 11,3 km/h (2 Bft)
17.05.2013 13:40 23,8 C 36 % 995,0 hPa 0,0 mm SO 126 12,9 km/h (3 Bft)
17.05.2013 13:45 23,6 C 40 % 995,0 hPa 0,0 mm SO 132 11,3 km/h (2 Bft)
17.05.2013 13:50 23,8 C 39 % 995,0 hPa 0,0 mm O-SO 109 11,3 km/h (2 Bft)
17.05.2013 13:55 23,8 C 39 % 995,1 hPa 0,0 mm S-SO 165 16,1 km/h (3 Bft)
17.05.2013 14:00 23,5 C 40 % 995,2 hPa 0,0 mm SO 128 17,7 km/h (3 Bft)
17.05.2013 14:05 23,4 C 38 % 995,1 hPa 0,0 mm SO 144 14,5 km/h (3 Bft)
17.05.2013 14:10 23,3 C 39 % 995,2 hPa 0,0 mm SO 135 16,1 km/h (3 Bft)
17.05.2013 14:15 23,3 C 40 % 995,2 hPa 0,0 mm S-SO 167 16,1 km/h (3 Bft)
17.05.2013 14:20 23,5 C 39 % 995,2 hPa 0,0 mm S-SO 158 9,7 km/h (2 Bft)
17.05.2013 14:25 23,8 C 36 % 995,3 hPa 0,0 mm S-SO 157 9,7 km/h (2 Bft)
17.05.2013 14:30 23,8 C 36 % 995,3 hPa 0,0 mm S-SO 155 9,7 km/h (2 Bft)
17.05.2013 14:35 23,8 C 37 % 995,3 hPa 0,0 mm SO 142 8,0 km/h (2 Bft)
17.05.2013 14:40 23,9 C 38 % 995,2 hPa 0,0 mm O-SO 112 12,9 km/h (3 Bft)
17.05.2013 14:45 23,9 C 38 % 995,2 hPa 0,0 mm S-SW 192 8,0 km/h (2 Bft)
17.05.2013 14:50 23,8 C 42 % 995,3 hPa 0,0 mm S 173 9,7 km/h (2 Bft)
17.05.2013 14:55 23,7 C 39 % 995,3 hPa 0,0 mm S-SO 159 12,9 km/h (3 Bft)
17.05.2013 15:00 23,9 C 38 % 995,2 hPa 0,0 mm SO 136 6,4 km/h (2 Bft)
17.05.2013 15:05 24,2 C 35 % 995,1 hPa 0,0 mm S 178 8,0 km/h (2 Bft)
17.05.2013 15:10 24,2 C 34 % 995,2 hPa 0,0 mm S 169 14,5 km/h (3 Bft)
17.05.2013 15:15 23,9 C 39 % 995,1 hPa 0,0 mm S-SO 150 16,1 km/h (3 Bft)
17.05.2013 15:20 23,8 C 35 % 995,2 hPa 0,0 mm S 178 11,3 km/h (2 Bft)
17.05.2013 15:25 23,6 C 37 % 995,2 hPa 0,0 mm S-SO 166 16,1 km/h (3 Bft)
17.05.2013 15:30 23,5 C 38 % 995,3 hPa 0,0 mm S 170 14,5 km/h (3 Bft)
17.05.2013 15:35 23,8 C 37 % 995,7 hPa 0,0 mm W 277 14,5 km/h (3 Bft)
17.05.2013 15:40 22,9 C 54 % 995,6 hPa 0,0 mm W-SW 246 22,5 km/h (4 Bft)
17.05.2013 15:45 21,7 C 59 % 995,9 hPa 0,0 mm W-NW 295 35,4 km/h (5 Bft)
17.05.2013 15:50 21,0 C 62 % 996,0 hPa 0,0 mm W 273 24,1 km/h (4 Bft)
17.05.2013 15:55 20,6 C 64 % 996,2 hPa 0,0 mm W 273 22,5 km/h (4 Bft)
17.05.2013 16:00 20,6 C 65 % 996,2 hPa 0,0 mm W 261 20,9 km/h (4 Bft)
17.05.2013 16:05 20,3 C 65 % 996,3 hPa 0,0 mm W-SW 251 24,1 km/h (4 Bft)
17.05.2013 16:10 20,2 C 66 % 996,4 hPa 0,0 mm W 275 19,3 km/h (3 Bft)
17.05.2013 16:15 20,4 C 66 % 996,3 hPa 0,0 mm W-NW 283 16,1 km/h (3 Bft)
17.05.2013 16:20 20,4 C 66 % 996,4 hPa 0,0 mm W 273 17,7 km/h (3 Bft)
17.05.2013 16:25 20,4 C 66 % 996,6 hPa 0,0 mm W 264 19,3 km/h (3 Bft)
17.05.2013 16:30 20,3 C 66 % 996,6 hPa 0,0 mm W-SW 252 14,5 km/h (3 Bft)
17.05.2013 16:35 20,2 C 67 % 996,5 hPa 0,0 mm W-SW 249 14,5 km/h (3 Bft)
17.05.2013 16:40 20,0 C 67 % 996,6 hPa 0,0 mm W 265 16,1 km/h (3 Bft)
17.05.2013 16:45 19,8 C 67 % 996,7 hPa 0,0 mm W 263 16,1 km/h (3 Bft)
17.05.2013 16:50 19,8 C 68 % 996,9 hPa 0,0 mm W-SW 257 14,5 km/h (3 Bft)
17.05.2013 16:55 19,6 C 68 % 996,9 hPa 0,0 mm W 270 22,5 km/h (4 Bft)
17.05.2013 17:00 19,4 C 68 % 997,0 hPa 0,0 mm W 267 17,7 km/h (3 Bft)
17.05.2013 17:05 19,3 C 68 % 997,0 hPa 0,0 mm W 265 19,3 km/h (3 Bft)
17.05.2013 17:10 19,1 C 67 % 997,1 hPa 0,0 mm W 272 20,9 km/h (4 Bft)
17.05.2013 17:15 19,0 C 68 % 997,2 hPa 0,0 mm W 275 17,7 km/h (3 Bft)
17.05.2013 17:20 18,9 C 68 % 997,3 hPa 0,0 mm W 275 19,3 km/h (3 Bft)
17.05.2013 17:25 18,7 C 68 % 997,3 hPa 0,0 mm W-SW 253 20,9 km/h (4 Bft)
17.05.2013 17:30 18,7 C 69 % 997,3 hPa 0,0 mm W 269 19,3 km/h (3 Bft)
17.05.2013 17:35 18,7 C 68 % 997,4 hPa 0,0 mm W 266 16,1 km/h (3 Bft)
17.05.2013 17:40 18,7 C 68 % 997,5 hPa 0,0 mm W 259 16,1 km/h (3 Bft)
17.05.2013 17:45 18,6 C 68 % 997,5 hPa 0,0 mm W 273 12,9 km/h (3 Bft)
17.05.2013 17:50 18,6 C 68 % 997,6 hPa 0,0 mm W-SW 252 16,1 km/h (3 Bft)
17.05.2013 17:55 18,6 C 68 % 997,7 hPa 0,0 mm W 264 16,1 km/h (3 Bft)
17.05.2013 18:00 18,5 C 69 % 997,7 hPa 0,0 mm W 266 16,1 km/h (3 Bft)
17.05.2013 18:05 18,4 C 69 % 997,9 hPa 0,0 mm W-SW 256 12,9 km/h (3 Bft)
17.05.2013 18:10 18,3 C 69 % 997,9 hPa 0,0 mm W 273 19,3 km/h (3 Bft)
17.05.2013 18:15 18,2 C 70 % 998,0 hPa 0,0 mm W 274 12,9 km/h (3 Bft)
17.05.2013 18:20 18,1 C 70 % 998,0 hPa 0,0 mm W 280 14,5 km/h (3 Bft)
17.05.2013 18:25 18,0 C 71 % 998,1 hPa 0,0 mm W 262 14,5 km/h (3 Bft)
17.05.2013 18:30 17,8 C 71 % 998,2 hPa 0,0 mm W 277 17,7 km/h (3 Bft)
17.05.2013 18:35 17,6 C 72 % 998,2 hPa 0,0 mm W 280 17,7 km/h (3 Bft)
17.05.2013 18:40 17,5 C 72 % 998,3 hPa 0,0 mm W 273 19,3 km/h (3 Bft)
17.05.2013 18:45 17,5 C 73 % 998,4 hPa 0,0 mm W 269 14,5 km/h (3 Bft)
17.05.2013 18:50 17,5 C 73 % 998,4 hPa 0,0 mm W 271 9,7 km/h (2 Bft)
17.05.2013 18:55 17,5 C 73 % 998,5 hPa 0,0 mm W 265 9,7 km/h (2 Bft)
17.05.2013 19:00 17,4 C 74 % 998,6 hPa 0,0 mm W 263 16,1 km/h (3 Bft)
17.05.2013 19:05 17,3 C 74 % 998,6 hPa 0,0 mm W 267 19,3 km/h (3 Bft)
17.05.2013 19:10 17,2 C 74 % 998,7 hPa 0,0 mm W 278 17,7 km/h (3 Bft)
17.05.2013 19:15 17,0 C 75 % 998,8 hPa 0,0 mm W-NW 285 14,5 km/h (3 Bft)
17.05.2013 19:20 16,8 C 76 % 999,0 hPa 0,0 mm W 279 14,5 km/h (3 Bft)
17.05.2013 19:25 16,6 C 79 % 999,0 hPa 0,0 mm W-NW 290 14,5 km/h (3 Bft)
17.05.2013 19:30 16,2 C 83 % 999,2 hPa 0,2 mm W 265 9,7 km/h (2 Bft)
17.05.2013 19:35 15,8 C 84 % 999,2 hPa 0,4 mm W 265 17,7 km/h (3 Bft)
17.05.2013 19:40 15,5 C 85 % 999,3 hPa 0,0 mm W 281 12,9 km/h (3 Bft)
17.05.2013 19:45 15,3 C 86 % 999,4 hPa 0,0 mm W 271 12,9 km/h (3 Bft)
17.05.2013 19:50 15,2 C 85 % 999,6 hPa 0,0 mm W 271 12,9 km/h (3 Bft)
17.05.2013 19:55 15,1 C 86 % 999,6 hPa 0,0 mm W 262 11,3 km/h (2 Bft)
17.05.2013 20:00 15,0 C 86 % 999,8 hPa 0,0 mm W-NW 290 9,7 km/h (2 Bft)
17.05.2013 20:05 14,8 C 87 % 999,7 hPa 0,2 mm W 267 11,3 km/h (2 Bft)
17.05.2013 20:10 14,6 C 88 % 999,8 hPa 0,0 mm W 279 14,5 km/h (3 Bft)
17.05.2013 20:15 14,5 C 88 % 999,8 hPa 0,2 mm W-NW 283 11,3 km/h (2 Bft)
17.05.2013 20:20 14,3 C 88 % 999,8 hPa 0,0 mm W-SW 254 12,9 km/h (3 Bft)
17.05.2013 20:25 14,1 C 88 % 1000,0 hPa 0,0 mm W 263 9,7 km/h (2 Bft)
17.05.2013 20:30 14,0 C 88 % 1000,0 hPa 0,0 mm W 268 9,7 km/h (2 Bft)
17.05.2013 20:35 13,9 C 89 % 1000,0 hPa 0,0 mm W 261 9,7 km/h (2 Bft)
17.05.2013 20:40 13,8 C 89 % 1000,0 hPa 0,0 mm W 264 9,7 km/h (2 Bft)
17.05.2013 20:45 13,8 C 90 % 1000,1 hPa 0,0 mm W 275 6,4 km/h (2 Bft)
17.05.2013 20:50 13,7 C 90 % 1000,2 hPa 0,0 mm W 267 9,7 km/h (2 Bft)
17.05.2013 20:55 13,6 C 90 % 1000,2 hPa 0,0 mm W 274 8,0 km/h (2 Bft)
17.05.2013 21:00 13,6 C 90 % 1000,2 hPa 0,0 mm W 280 9,7 km/h (2 Bft)
17.05.2013 21:05 13,6 C 90 % 1000,2 hPa 0,0 mm W 270 8,0 km/h (2 Bft)
17.05.2013 21:10 13,6 C 90 % 1000,3 hPa 0,0 mm W 262 8,0 km/h (2 Bft)
17.05.2013 21:15 13,5 C 90 % 1000,3 hPa 0,0 mm W-SW 254 8,0 km/h (2 Bft)
17.05.2013 21:20 13,5 C 90 % 1000,5 hPa 0,0 mm W-SW 242 8,0 km/h (2 Bft)
17.05.2013 21:25 13,4 C 91 % 1000,5 hPa 0,0 mm W-SW 256 8,0 km/h (2 Bft)
17.05.2013 21:30 13,4 C 91 % 1000,6 hPa 0,0 mm W 271 6,4 km/h (2 Bft)
17.05.2013 21:35 13,4 C 91 % 1000,8 hPa 0,0 mm W 274 6,4 km/h (2 Bft)
17.05.2013 21:40 13,4 C 91 % 1000,8 hPa 0,0 mm W 281 8,0 km/h (2 Bft)
17.05.2013 21:45 13,4 C 91 % 1000,7 hPa 0,0 mm W 261 6,4 km/h (2 Bft)
17.05.2013 21:50 13,4 C 90 % 1000,8 hPa 0,0 mm W 270 3,2 km/h (1 Bft)
17.05.2013 21:55 13,4 C 90 % 1000,7 hPa 0,0 mm W 270 1,6 km/h (1 Bft)
17.05.2013 22:00 13,4 C 91 % 1000,9 hPa 0,0 mm W 270 0,0 km/h (0 Bft)
17.05.2013 22:05 13,4 C 91 % 1001,0 hPa 0,0 mm W 270 1,6 km/h (1 Bft)
17.05.2013 22:10 13,4 C 91 % 1001,1 hPa 0,0 mm W 270 3,2 km/h (1 Bft)
17.05.2013 22:15 13,4 C 91 % 1001,2 hPa 0,0 mm W 280 4,8 km/h (1 Bft)
17.05.2013 22:20 13,5 C 91 % 1001,3 hPa 0,2 mm W 266 6,4 km/h (2 Bft)
17.05.2013 22:25 13,5 C 92 % 1001,4 hPa 0,0 mm W 263 6,4 km/h (2 Bft)
17.05.2013 22:30 13,5 C 92 % 1001,6 hPa 0,0 mm W 268 6,4 km/h (2 Bft)
17.05.2013 22:35 13,4 C 92 % 1001,8 hPa 0,0 mm W 267 6,4 km/h (2 Bft)
17.05.2013 22:40 13,4 C 92 % 1001,9 hPa 0,2 mm W 268 6,4 km/h (2 Bft)
17.05.2013 22:45 13,4 C 91 % 1001,9 hPa 0,0 mm W 270 6,4 km/h (2 Bft)
17.05.2013 22:50 13,3 C 91 % 1002,0 hPa 0,0 mm W 263 12,9 km/h (3 Bft)
17.05.2013 22:55 13,2 C 91 % 1002,0 hPa 0,2 mm W 263 8,0 km/h (2 Bft)
17.05.2013 23:00 13,2 C 91 % 1002,0 hPa 0,2 mm W 272 6,4 km/h (2 Bft)
17.05.2013 23:05 13,1 C 91 % 1002,0 hPa 0,0 mm W 277 4,8 km/h (1 Bft)
17.05.2013 23:10 13,1 C 92 % 1002,0 hPa 0,0 mm W 271 6,4 km/h (2 Bft)
17.05.2013 23:15 13,1 C 92 % 1002,3 hPa 0,4 mm W 267 6,4 km/h (2 Bft)
17.05.2013 23:20 13,0 C 92 % 1002,3 hPa 0,4 mm W 274 6,4 km/h (2 Bft)
17.05.2013 23:25 13,0 C 92 % 1002,4 hPa 0,4 mm W 274 3,2 km/h (1 Bft)
17.05.2013 23:30 12,9 C 92 % 1002,4 hPa 0,6 mm W 261 6,4 km/h (2 Bft)
17.05.2013 23:35 12,9 C 93 % 1002,5 hPa 0,2 mm W-SW 252 4,8 km/h (1 Bft)
17.05.2013 23:40 12,9 C 93 % 1002,6 hPa 0,0 mm W 265 6,4 km/h (2 Bft)
17.05.2013 23:45 12,9 C 93 % 1002,5 hPa 0,0 mm W 265 3,2 km/h (1 Bft)
17.05.2013 23:50 12,8 C 93 % 1002,6 hPa 0,0 mm W 265 3,2 km/h (1 Bft)
17.05.2013 23:55 12,9 C 93 % 1002,7 hPa 0,2 mm W 263 4,8 km/h (1 Bft)
_ Min-Zeit 05:10 15:10 10:20 - - - 00:20
Minimum _ 10,9 C 34 % 994,8 hPa - - - 0,0 km/h (0 Bft)
_ Max-Zeit 12:35 23:35 23:55 23:30 - - 15:45
Maximum _ 25,1 C 93 % 1002,7 hPa 0,6 mm - - 35,4 km/h
W (5 Bft)
Durchschnitt _ 17,3 C 66 % 996,6 hPa #4,0 mm W - 10,1 km/h (2 Bft)